TimeEST,TemperatureF,Dew PointF,Humidity,Sea Level PressureIn,VisibilityMPH,Wind Direction,Wind SpeedMPH,Gust SpeedMPH,PrecipitationIn,Events,Conditions,WindDirDegrees,DateUTC
12:52 AM,41.0,33.1,73,30.01,10.0,NNW,10.4,-,N/A,,Overcast,330,2013-02-16 05:52:00
1:08 AM,39.2,33.8,81,30.00,10.0,North,10.4,-,N/A,,Overcast,350,2013-02-16 06:08:00
1:15 AM,39.2,33.8,81,30.00,10.0,NNW,10.4,-,N/A,,Overcast,340,2013-02-16 06:15:00
1:25 AM,39.2,33.8,81,30.01,10.0,NNW,12.7,-,N/A,,Overcast,330,2013-02-16 06:25:00
1:35 AM,39.2,33.8,81,30.00,10.0,NNW,12.7,-,N/A,,Overcast,330,2013-02-16 06:35:00
1:52 AM,39.0,33.1,79,30.01,10.0,NNW,10.4,-,N/A,,Overcast,330,2013-02-16 06:52:00
2:52 AM,39.0,32.0,76,29.99,10.0,NNW,8.1,-,N/A,,Overcast,330,2013-02-16 07:52:00
3:52 AM,39.0,32.0,76,29.96,10.0,NNW,5.8,-,N/A,,Overcast,340,2013-02-16 08:52:00
4:52 AM,39.0,33.1,79,29.96,10.0,North,4.6,-,N/A,,Overcast,350,2013-02-16 09:52:00
5:52 AM,37.9,33.1,83,29.95,10.0,North,8.1,-,N/A,,Overcast,10,2013-02-16 10:52:00
6:04 AM,37.4,33.8,87,29.95,10.0,North,6.9,-,N/A,,Overcast,350,2013-02-16 11:04:00
6:52 AM,37.9,33.1,83,29.95,10.0,NW,10.4,-,0.00,Rain,Light Rain,320,2013-02-16 11:52:00
7:52 AM,37.9,33.1,83,29.96,10.0,NW,9.2,-,0.00,Rain,Light Rain,310,2013-02-16 12:52:00
8:52 AM,37.9,33.1,83,29.96,10.0,NW,9.2,-,0.00,Rain,Light Rain,310,2013-02-16 13:52:00
9:37 AM,37.4,32.0,81,29.94,9.0,North,9.2,-,0.01,Rain-Snow,Light Rain,350,2013-02-16 14:37:00
9:52 AM,37.0,32.0,82,29.94,10.0,North,8.1,-,0.01,Rain-Snow,Light Rain,360,2013-02-16 14:52:00
10:52 AM,37.9,33.1,83,29.94,10.0,NNW,9.2,-,0.00,Rain,Light Rain,330,2013-02-16 15:52:00
11:52 AM,37.0,33.1,86,29.92,7.0,North,8.1,-,0.01,Rain,Light Rain,360,2013-02-16 16:52:00
12:52 PM,37.0,33.1,86,29.90,6.0,North,9.2,-,0.02,Rain,Light Rain,10,2013-02-16 17:52:00
1:52 PM,37.0,33.1,86,29.87,5.0,NNW,9.2,-,0.01,Rain,Light Rain,330,2013-02-16 18:52:00
2:52 PM,37.0,33.1,86,29.86,4.0,NNW,11.5,-,0.01,Rain,Light Rain,340,2013-02-16 19:52:00
3:42 PM,35.6,30.2,81,29.85,4.0,NNW,10.4,-,0.01,Rain-Snow,Light Rain,340,2013-02-16 20:42:00
3:52 PM,35.1,32.0,89,29.85,3.0,NNW,10.4,-,0.02,Rain-Snow,Light Rain,340,2013-02-16 20:52:00
4:52 PM,35.1,30.9,85,29.84,2.5,NNW,13.8,-,0.01,Snow,Light Snow,340,2013-02-16 21:52:00
5:52 PM,35.1,32.0,89,29.84,5.0,NNW,8.1,-,0.01,Snow,Light Snow,330,2013-02-16 22:52:00
6:48 PM,35.6,30.2,81,29.83,6.0,North,10.4,-,0.00,Snow,Light Snow,350,2013-02-16 23:48:00
6:52 PM,35.1,30.9,85,29.83,8.0,NNW,10.4,-,0.00,,Overcast,340,2013-02-16 23:52:00
7:52 PM,36.0,28.9,76,29.83,10.0,NW,11.5,-,N/A,,Overcast,320,2013-02-17 00:52:00
8:52 PM,35.1,27.0,72,29.83,10.0,NW,12.7,-,N/A,,Overcast,320,2013-02-17 01:52:00
9:52 PM,35.1,26.1,70,29.83,10.0,NW,15.0,-,N/A,,Overcast,320,2013-02-17 02:52:00
10:52 PM,34.0,25.0,70,29.81,10.0,NW,15.0,-,N/A,,Overcast,320,2013-02-17 03:52:00
11:52 PM,34.0,21.0,59,29.80,10.0,NW,13.8,-,N/A,,Overcast,310,2013-02-17 04:52:00